Theta_e
355 357 359 359 362 356 352 346 322 329 326 316 316 319 319 331 330 329 328 330 325 333 334 336 335 334 331 328 331 333 334 330 331 321 321 338 350 352 355 357 356 355 356 357 359 359 358 359 359 361 361 362 362 362 363 362 361 361 361 361 361 360 360 360 361 362 361 361 362 361 360 360 361 360 362 362 364 363 362 363 362 361 362 362 359 363 362 362 363 364 362 364 362 363 363 364 360
354 360 360 365 356 352 336 343 324 322 321 315 317 323 322 327 327 323 323 326 327 330 335 335 336 335 334 334 335 335 333 336 339 337 341 346 352 353 354 358 358 354 355 356 358 358 357 357 358 359 361 362 362 362 362 362 361 361 361 361 361 360 361 360 361 361 361 361 361 361 360 361 360 360 360 361 361 362 362 362 361 362 362 362 361 362 363 362 364 364 364 365 364 364 364 363 363
359 361 360 358 354 347 343 341 318 318 312 311 317 321 328 324 322 325 328 328 331 334 335 336 337 336 334 335 332 332 327 340 342 344 342 348 345 347 354 356 357 357 357 356 357 357 357 357 358 359 360 361 362 362 361 361 361 360 361 361 361 361 360 360 362 362 361 362 362 362 361 360 360 361 360 360 361 361 361 362 361 359 360 362 362 362 363 363 364 364 363 364 363 364 364 364 363
360 363 357 356 339 346 331 331 322 318 314 313 317 324 324 323 324 328 330 331 332 334 334 333 331 339 334 329 333 338 335 336 342 342 340 343 348 352 355 356 359 359 358 358 358 358 358 358 359 358 360 361 361 361 361 361 360 359 359 360 360 361 360 360 361 361 361 361 362 362 362 361 361 360 360 359 359 361 361 361 361 361 361 361 361 361 362 362 363 364 363 364 364 365 364 364 364
360 361 360 352 341 331 331 326 324 321 313 316 318 324 325 326 327 329 329 332 333 333 333 331 332 338 338 335 339 330 332 340 342 345 344 347 352 352 354 356 357 357 357 358 358 359 358 359 360 360 360 361 361 361 360 360 359 358 358 360 361 361 360 361 361 361 361 361 361 362 362 362 361 361 361 360 360 359 360 360 361 362 361 361 360 360 362 362 363 364 364 363 364 364 365 364 364
360 358 359 353 336 342 334 323 322 319 321 325 320 322 326 328 329 328 329 331 333 334 334 333 331 332 331 334 339 335 341 334 343 346 346 346 352 353 353 356 356 355 356 357 358 358 357 360 359 359 360 360 361 361 360 360 358 358 358 360 361 361 361 360 360 361 361 362 361 362 361 361 361 360 361 360 359 360 359 359 358 359 361 361 359 359 362 363 364 364 363 364 364 365 365 365 365
353 351 348 348 344 345 322 321 317 321 323 329 325 326 328 329 329 328 328 329 330 331 335 332 335 335 330 335 339 342 346 346 343 345 348 349 356 355 355 354 356 358 359 358 359 358 359 360 359 359 360 361 361 361 361 360 358 358 358 360 362 361 360 360 360 361 361 361 361 361 360 361 360 360 360 361 359 359 359 359 359 360 360 361 359 360 363 363 364 363 364 364 364 364 364 364 364
360 344 342 332 326 329 322 320 320 326 325 332 331 328 331 333 333 328 327 326 326 326 331 334 334 332 330 339 330 342 347 347 347 351 350 350 354 354 355 355 354 356 357 357 358 359 362 361 359 359 360 360 361 361 361 360 359 359 359 360 361 361 360 360 360 360 360 361 361 361 361 361 361 360 360 360 360 359 360 360 359 360 360 361 361 359 361 363 361 364 364 364 364 364 364 364 364
354 347 350 335 324 326 321 322 323 329 328 332 331 336 336 335 336 333 325 326 327 329 330 332 335 329 330 333 333 340 344 348 350 353 350 350 353 354 355 355 354 354 356 357 358 359 358 361 360 360 360 359 360 360 360 360 359 359 359 360 360 360 359 360 359 360 360 360 360 360 361 360 360 361 360 360 361 360 361 361 360 359 358 358 358 358 357 361 363 363 363 364 364 364 364 364 364
347 344 331 328 328 319 320 319 320 324 328 330 333 333 334 335 333 334 327 326 326 327 330 334 334 330 333 330 334 339 342 349 349 349 350 351 354 354 353 355 356 355 355 357 358 357 358 362 359 361 360 360 360 360 360 361 359 358 359 360 360 359 359 360 359 359 358 358 361 360 360 360 360 361 360 359 360 360 360 360 360 358 358 357 357 356 356 356 362 363 363 363 363 364 364 364 364
334 342 340 326 319 317 315 318 322 327 326 329 333 337 337 335 331 331 330 327 329 327 331 334 332 333 334 333 335 345 347 349 347 346 350 352 353 353 352 355 356 355 354 356 356 358 357 357 360 360 361 360 360 360 359 360 359 359 359 359 360 360 359 359 358 359 360 359 359 359 360 359 358 360 360 359 359 359 359 360 359 357 358 357 355 356 356 361 363 363 363 363 363 364 363 363 361
332 331 335 321 318 317 320 319 319 327 329 330 331 339 339 337 338 332 329 323 326 328 328 333 328 334 330 331 333 341 346 346 346 348 350 352 351 352 353 354 355 355 356 356 356 356 356 358 358 360 360 360 360 360 360 359 359 359 358 359 361 359 359 359 359 357 357 358 359 359 359 359 360 360 359 359 359 359 360 360 359 358 356 355 355 356 358 362 363 363 363 363 363 364 363 363 362
335 334 327 322 318 321 324 320 323 323 328 330 331 339 343 338 335 331 330 328 327 325 327 333 335 336 328 331 337 342 342 344 347 348 348 351 351 352 353 353 354 355 356 356 355 356 357 358 357 358 358 359 359 360 360 360 359 358 358 358 359 359 358 358 359 358 358 357 356 360 360 360 360 359 358 359 359 359 359 359 358 357 356 356 356 356 360 362 364 363 364 364 364 364 364 363 362
335 335 329 322 327 322 323 321 323 320 321 328 335 340 340 338 337 338 338 326 326 325 330 335 337 336 331 333 335 338 340 346 347 347 348 349 352 352 353 356 355 354 355 355 356 357 357 358 357 357 357 356 356 359 360 360 359 358 358 358 358 359 359 359 359 359 358 358 357 360 359 359 359 357 358 358 358 358 358 359 358 358 358 357 357 359 362 363 364 363 364 364 364 364 364 363 363
328 337 331 325 321 321 324 321 323 321 321 328 337 339 340 342 339 341 336 330 326 332 335 338 335 333 325 331 332 337 341 345 345 347 347 348 349 350 352 353 353 355 355 357 356 356 356 357 357 357 357 357 356 357 356 358 359 358 358 357 358 359 359 359 359 359 358 358 358 359 361 360 358 358 358 358 358 358 359 359 359 360 359 360 361 362 362 363 364 364 364 364 364 364 363 363 362
333 334 327 320 318 317 319 321 325 321 321 328 339 342 337 340 343 338 338 335 328 333 335 327 337 330 334 333 336 340 343 344 345 347 346 346 349 349 350 350 350 351 353 354 354 354 355 356 357 357 357 356 356 354 355 358 357 358 358 358 358 359 358 358 360 357 355 356 360 359 359 359 357 356 358 356 357 358 360 358 360 361 360 361 361 361 362 362 363 364 364 364 364 363 363 362 362
332 333 320 320 315 321 320 323 323 316 323 328 340 339 332 334 341 339 337 335 332 330 331 332 328 337 334 337 341 343 344 345 347 345 344 343 345 346 346 347 349 350 351 352 353 354 355 355 357 357 356 354 356 352 352 352 355 357 357 359 359 359 359 358 359 354 355 358 358 361 357 356 355 355 355 352 358 356 359 361 362 362 362 362 362 361 362 363 363 364 365 365 364 363 363 363 361
327 324 319 318 318 319 325 325 328 328 327 330 335 339 336 332 335 334 334 333 333 329 328 332 336 337 339 342 344 344 344 343 344 341 341 341 342 340 344 345 346 348 349 350 353 354 353 355 355 357 356 355 354 352 349 350 355 356 356 357 357 358 358 358 358 357 358 356 358 358 355 355 355 353 351 354 353 356 358 363 363 362 362 362 361 363 363 364 364 365 366 365 364 364 364 362 363
322 321 319 313 320 323 331 330 333 329 328 334 337 337 338 336 333 336 335 328 331 328 330 332 333 337 340 341 342 342 342 342 341 340 340 339 340 338 341 345 347 348 348 350 352 354 355 355 354 354 357 354 352 350 349 350 352 354 355 355 356 357 359 358 358 359 357 355 354 354 357 354 353 354 352 352 355 357 361 364 363 362 362 363 363 363 363 364 364 365 365 365 364 364 364 364 362
324 320 317 318 325 328 333 336 335 336 332 334 335 338 337 335 335 340 331 329 332 330 327 330 330 331 335 338 340 340 341 341 341 340 339 339 340 340 341 342 343 347 348 350 350 353 354 354 355 357 355 354 353 353 352 352 353 355 355 355 355 357 358 358 357 357 359 357 356 358 357 357 358 360 358 359 359 360 361 364 364 364 364 364 363 362 363 364 364 365 366 365 364 362 364 363 361
324 320 316 321 328 329 333 339 339 340 340 339 337 338 334 335 336 336 332 330 327 332 334 336 331 332 335 337 338 339 340 339 340 340 339 339 340 341 343 342 343 346 347 349 350 350 352 354 355 356 358 355 354 356 351 353 352 353 356 355 356 356 355 356 357 357 358 356 357 360 358 357 357 358 360 360 358 361 361 361 361 361 362 362 363 361 361 361 362 364 363 364 363 362 362 363 361
320 319 322 325 327 327 336 335 342 339 341 338 336 334 330 337 337 334 333 327 324 328 332 336 340 339 335 337 337 339 339 338 339 339 338 339 339 341 343 343 345 347 347 348 348 349 351 354 354 356 359 359 357 357 356 356 353 354 356 357 357 355 354 355 356 357 358 359 357 358 357 357 357 358 359 360 360 360 359 359 359 360 360 360 362 360 360 361 361 360 361 359 361 362 358 359 357
314 321 323 326 327 327 335 336 340 341 336 335 333 334 339 334 334 338 338 330 332 335 336 337 338 339 338 340 338 338 338 338 338 338 338 339 339 341 341 343 343 343 346 346 348 350 352 353 355 354 355 357 354 355 356 355 353 356 356 356 354 354 355 354 356 358 358 359 357 357 357 355 355 356 357 359 359 360 358 359 358 360 359 358 360 359 358 359 360 358 359 361 361 359 353 366 364
317 315 322 326 329 326 333 334 339 336 335 334 339 340 332 334 328 338 338 339 339 336 338 338 339 338 340 338 338 338 338 338 338 339 340 340 341 342 342 342 341 345 347 346 347 349 351 351 355 355 355 356 356 356 353 352 354 352 353 355 354 354 353 354 357 356 359 359 358 360 362 356 355 356 356 358 359 360 355 356 357 357 357 357 360 359 356 356 357 357 358 358 358 358 352 357 362
315 315 331 330 331 330 336 338 337 339 337 340 339 334 334 333 332 338 337 338 342 341 340 338 337 338 338 338 337 338 338 338 338 339 340 341 342 342 344 343 342 344 345 345 347 347 350 352 353 353 355 355 352 353 353 354 352 350 351 355 351 355 355 355 356 357 358 360 360 361 360 358 357 357 356 358 359 359 360 355 352 351 354 354 356 357 355 356 356 356 366 365 366 362 351 362 359
318 319 330 330 332 335 337 341 338 337 339 340 335 329 335 336 336 335 337 340 344 338 339 338 337 337 337 337 337 337 337 337 339 339 339 341 342 341 343 342 344 342 344 346 346 349 350 352 351 352 354 354 353 355 354 351 351 355 354 355 352 355 355 355 355 356 359 359 359 361 359 361 358 357 356 357 356 358 359 354 351 349 348 354 352 355 354 359 360 362 363 362 360 359 356 353 354
321 330 329 329 330 333 339 338 338 338 341 338 334 331 331 341 337 329 341 340 342 340 338 339 339 338 339 336 338 337 337 337 338 339 341 340 342 340 342 343 344 342 346 344 347 348 350 350 349 351 353 356 355 350 354 352 353 353 354 354 350 350 352 354 357 358 359 359 360 360 359 360 358 356 355 358 357 357 358 354 349 350 353 357 363 355 363 365 362 361 354 361 360 360 354 356 354
316 330 324 328 331 337 338 338 338 338 336 342 340 335 336 342 340 326 337 342 341 336 336 338 337 336 337 337 341 338 337 339 340 339 337 338 339 340 342 343 344 344 344 344 347 349 350 349 349 352 353 354 356 350 356 354 355 355 356 355 353 352 354 356 357 359 358 359 359 358 359 360 359 355 355 355 355 355 351 351 359 356 356 366 367 364 366 363 364 359 363 365 372 369 370 361 354
314 324 325 327 328 325 335 335 338 338 335 341 340 334 330 335 330 336 336 339 337 337 335 337 337 339 337 338 340 337 337 339 339 340 339 340 342 342 343 344 344 344 344 345 347 349 348 349 350 352 352 354 354 351 353 354 354 354 355 353 354 356 356 357 356 357 357 356 358 356 356 356 357 356 359 355 362 360 359 361 361 369 364 367 365 361 363 369 360 364 368 364 366 362 356 356 349
315 314 318 324 324 321 333 338 337 336 336 344 337 313 319 326 333 339 344 340 341 336 333 335 334 336 336 336 336 336 339 339 338 340 341 342 342 343 343 344 345 345 345 346 346 347 349 349 352 351 352 353 353 353 355 355 352 353 355 354 356 356 355 355 355 355 356 355 352 353 355 356 358 358 364 365 360 357 359 360 363 362 366 365 373 368 368 367 367 364 365 361 358 365 359 360 354
309 314 318 313 317 316 328 331 331 328 341 343 336 316 317 328 333 340 347 347 341 332 333 332 334 335 336 336 336 335 339 340 340 339 342 343 344 343 344 345 344 346 345 346 346 347 348 350 350 352 353 352 354 354 354 354 353 353 355 355 356 356 355 354 355 354 354 354 352 353 354 356 356 359 361 358 359 353 350 355 364 366 366 362 372 372 370 365 366 361 366 356 358 357 350 360 353
313 309 309 316 313 315 323 331 329 322 337 340 334 317 319 323 329 338 345 346 341 334 333 333 335 335 333 336 335 335 336 340 341 342 342 344 345 344 345 345 345 347 345 346 347 347 347 349 350 350 351 352 354 355 354 355 354 355 354 357 356 356 356 355 355 354 354 354 354 352 354 355 357 361 357 358 355 354 352 350 353 357 361 373 369 374 372 368 364 360 355 353 352 343 348 346 349
311 310 309 310 315 315 319 329 331 330 328 334 331 317 320 321 329 339 346 344 340 336 332 333 335 337 335 335 336 334 336 338 340 341 342 344 345 345 346 345 345 348 346 346 346 346 347 348 348 350 351 351 354 354 356 356 359 356 356 356 355 356 356 356 355 357 354 352 354 352 355 358 362 360 360 356 355 355 355 353 356 350 357 369 364 361 359 357 355 349 353 361 358 363 345 340 345
307 311 308 311 311 312 311 323 330 331 329 320 332 323 321 325 331 338 344 343 339 335 333 333 336 337 335 335 334 334 336 338 338 340 342 344 345 345 346 348 347 348 349 348 348 347 347 347 349 349 350 352 356 354 357 358 359 356 355 356 358 358 358 358 357 356 353 353 353 353 361 360 364 359 361 360 359 360 354 351 352 359 362 362 365 363 361 357 356 355 349 358 360 367 359 354 348
304 308 307 308 311 311 312 314 324 327 329 325 322 321 321 325 329 332 336 342 339 335 333 333 334 335 335 335 338 336 337 339 339 341 343 344 345 345 345 347 347 347 347 348 348 348 348 350 352 354 352 352 353 355 355 355 357 356 356 354 354 356 357 358 356 354 355 354 352 352 357 364 359 357 359 357 359 353 355 355 356 359 362 363 360 358 359 361 357 355 352 367 368 366 364 350 341
307 307 309 310 309 309 311 317 324 328 320 318 322 316 317 323 325 330 333 338 337 335 335 335 336 336 337 342 339 340 338 339 342 344 345 345 346 345 345 347 347 348 347 349 350 350 350 350 352 353 352 352 354 353 354 351 352 352 350 352 352 353 354 354 353 353 353 352 349 351 357 359 358 357 357 352 355 356 355 358 357 358 360 359 357 356 358 358 356 356 354 353 360 358 361 353 354
308 308 307 308 309 311 318 320 324 326 319 314 315 314 316 324 327 329 332 333 332 332 334 335 335 336 336 334 338 336 339 341 343 346 346 347 348 345 347 347 346 347 348 349 347 347 348 348 349 351 352 352 353 352 350 350 348 349 350 349 348 352 352 351 351 351 349 350 347 353 357 359 358 359 359 355 353 356 354 356 356 362 360 362 361 358 357 361 359 358 359 371 358 358 352 349 349
307 306 306 305 309 306 318 319 324 329 318 314 315 313 319 323 327 330 334 332 330 332 332 334 335 336 338 335 336 338 340 344 345 344 347 346 344 347 346 346 347 344 347 348 348 348 349 349 350 349 352 352 352 352 351 351 351 351 350 349 349 350 351 349 350 351 349 352 350 353 355 356 357 361 360 358 355 355 353 356 356 359 360 362 366 364 363 366 361 359 365 369 357 350 360 343 340
306 305 305 304 305 310 317 323 325 327 320 314 316 313 313 326 329 332 332 332 333 336 337 337 338 337 335 336 337 337 340 341 341 342 345 342 345 347 346 346 347 346 347 347 348 348 349 349 352 352 352 351 351 352 353 352 353 354 354 352 350 349 351 352 348 349 350 351 349 350 355 354 356 360 360 359 355 354 356 356 358 361 363 368 367 367 366 361 362 356 358 363 354 350 360 348 356
304 304 302 301 308 304 304 321 324 328 321 313 313 312 315 327 331 331 333 333 334 338 339 338 339 337 338 335 337 338 338 339 340 340 340 344 346 348 349 346 346 345 347 346 347 348 349 351 352 352 351 352 352 352 353 355 355 356 357 355 355 356 349 353 355 358 357 355 346 349 349 352 359 360 355 356 355 355 354 356 357 362 370 372 372 370 367 360 358 357 357 364 365 353 347 347 353
305 305 303 303 304 306 306 317 319 322 323 322 317 315 314 320 321 325 330 333 333 335 336 336 338 340 341 339 337 337 340 338 339 340 343 346 346 347 346 346 347 346 346 346 346 347 349 349 352 353 352 353 352 355 354 354 355 354 354 353 352 352 352 354 355 354 355 355 353 349 348 355 357 358 357 352 351 351 355 356 365 366 366 370 366 366 367 355 357 358 361 369 364 358 354 354 351
304 306 306 305 306 306 306 310 315 313 310 318 318 306 307 318 322 321 324 327 327 332 332 332 334 335 336 336 335 339 341 339 340 340 340 342 344 346 344 345 346 346 346 347 348 350 350 351 351 353 353 355 352 354 354 353 354 351 349 346 342 344 344 347 350 346 348 348 349 351 349 354 356 354 356 353 354 355 355 360 367 364 364 370 366 360 361 361 362 362 362 363 361 364 363 356 348
302 304 308 307 307 306 306 306 307 302 301 316 321 306 304 314 316 320 324 324 324 329 329 330 332 333 334 335 335 337 339 341 342 343 342 341 343 345 345 344 344 344 346 348 349 349 351 353 351 351 352 353 352 353 354 353 352 351 350 346 343 345 345 347 352 351 348 349 351 348 351 352 355 354 353 350 351 355 356 364 368 365 364 367 370 367 363 356 355 360 364 365 361 370 362 360 353
302 309 313 311 308 306 306 307 307 306 315 319 319 315 306 306 314 321 322 322 323 325 327 329 331 331 333 333 335 336 337 338 342 342 341 342 344 345 342 345 345 346 347 350 348 349 348 353 355 353 355 355 351 352 353 354 352 352 350 348 346 348 345 347 349 351 351 352 350 347 349 350 354 359 357 360 355 357 361 362 368 364 364 361 366 367 361 363 364 365 367 368 371 373 370 363 357
307 312 313 312 312 311 311 310 308 311 309 309 310 317 306 306 315 323 323 320 321 321 326 328 330 332 332 333 334 336 340 339 338 339 342 344 342 342 346 343 348 349 349 347 347 348 350 351 353 354 356 353 352 354 354 354 354 353 351 349 349 348 349 350 350 350 348 349 346 348 351 350 355 360 359 362 364 363 362 360 367 369 367 363 365 365 363 363 362 364 368 369 365 367 366 365 369
311 313 314 313 313 313 312 309 310 310 307 303 308 312 303 306 313 316 321 316 318 320 323 327 330 331 332 335 337 339 339 342 343 344 345 346 348 346 346 347 345 344 347 346 349 349 350 351 351 351 352 353 352 354 354 356 355 356 353 351 349 350 351 349 348 347 349 353 350 354 355 355 351 356 358 362 363 362 361 363 360 362 360 358 360 359 360 364 365 367 365 362 367 366 372 368 366
314 312 310 312 311 310 312 313 313 309 303 305 310 311 308 302 310 315 316 317 320 321 322 327 329 333 335 337 337 335 338 341 341 342 344 345 348 349 349 345 346 346 346 348 350 348 349 349 351 350 351 353 354 353 353 353 355 355 352 353 353 352 350 348 347 349 355 356 354 352 355 358 353 354 356 358 361 357 359 360 355 359 359 363 361 359 358 362 359 360 360 366 366 366 368 365 361
311 308 309 309 309 312 308 309 311 302 300 306 308 311 311 300 307 315 320 323 323 324 322 324 327 329 330 333 339 335 337 340 342 344 343 343 345 347 346 343 341 345 345 347 348 346 348 349 351 351 353 354 353 352 352 350 351 353 353 354 354 354 349 344 349 349 352 354 353 353 357 358 356 354 360 354 355 355 359 359 358 358 361 359 361 362 360 356 356 360 366 368 368 367 370 373 364
310 308 307 302 301 302 298 305 300 300 300 307 310 312 307 305 310 319 322 321 328 330 329 324 327 327 330 331 333 338 337 338 341 342 340 340 340 341 343 343 344 346 348 349 348 345 347 350 351 351 351 352 353 353 351 353 353 352 352 353 354 354 351 352 352 353 354 354 352 353 358 357 358 354 354 352 351 352 358 361 357 357 362 362 365 365 370 369 370 362 366 359 364 364 367 365 363
308 306 305 301 297 297 294 297 300 299 305 308 309 311 304 310 315 322 321 324 328 331 334 333 329 332 332 331 332 333 336 338 340 341 341 342 342 343 343 343 345 344 348 347 345 346 349 347 352 351 352 354 355 354 353 354 354 354 354 354 352 354 352 352 351 350 350 353 355 353 351 351 356 352 349 353 352 351 355 356 363 363 364 366 367 365 369 367 368 366 365 365 358 365 369 364 367
308 310 306 303 301 296 294 297 295 296 299 305 312 305 307 303 310 323 325 327 329 331 333 338 335 333 335 336 337 336 336 339 339 340 341 342 343 345 345 345 346 353 349 346 344 343 347 349 352 353 352 352 354 354 354 354 353 354 355 353 354 352 351 349 350 351 352 351 348 349 353 351 352 353 353 356 354 355 356 357 362 363 363 366 367 364 362 366 368 367 367 365 368 365 364 363 361
309 310 310 304 303 307 297 301 299 300 300 301 305 304 311 311 321 323 326 327 327 331 333 335 336 338 335 332 334 336 337 339 340 341 343 345 345 348 349 351 351 350 350 348 346 347 344 348 352 352 353 353 353 356 355 353 354 352 357 356 354 355 357 351 355 356 355 352 351 350 355 357 353 355 357 359 353 358 356 357 360 360 365 361 365 364 363 362 367 366 366 364 361 360 363 363 361
306 307 303 306 311 306 302 303 304 304 301 298 309 305 309 318 319 320 323 326 326 325 326 332 334 337 336 334 332 334 336 337 337 339 342 343 346 347 348 350 351 348 348 347 349 346 346 342 347 352 353 353 352 355 353 355 356 355 355 353 352 353 351 349 347 347 346 350 352 350 349 349 351 354 353 353 354 361 358 358 355 353 362 363 365 365 361 364 366 365 364 365 362 360 363 363 360
307 302 306 311 312 309 303 296 301 300 295 299 303 301 303 307 302 320 321 321 324 325 325 329 333 335 335 333 335 338 338 338 340 340 343 345 346 346 347 350 350 349 349 350 348 347 344 346 344 350 351 351 352 352 352 353 354 353 354 353 353 353 350 348 347 345 345 348 350 352 350 351 348 348 350 350 353 353 358 360 359 359 357 358 360 358 360 362 364 362 362 365 362 367 370 369 367
308 306 313 304 301 300 306 301 294 295 295 297 301 303 304 307 308 315 314 317 322 325 328 328 329 331 335 334 333 335 338 339 338 339 340 342 343 343 346 348 351 351 351 351 349 349 349 346 346 346 350 351 351 351 350 351 352 351 352 352 351 351 349 347 347 347 347 345 344 345 347 349 347 351 353 357 352 350 355 355 362 355 359 359 360 358 360 366 366 364 361 362 363 369 366 365 367
313 315 309 312 307 303 301 303 302 301 296 296 299 301 303 313 312 315 317 320 322 324 325 328 330 334 334 336 336 337 336 336 338 340 341 342 343 343 346 348 351 352 351 350 351 352 350 350 348 345 347 350 350 350 351 349 348 348 349 351 352 354 353 349 348 347 343 343 343 344 346 346 347 348 348 352 349 350 351 351 351 350 350 351 352 353 354 362 365 362 359 356 359 365 363 364 360
308 307 306 307 307 310 307 306 303 300 298 297 297 295 304 315 320 318 320 323 323 323 324 327 332 335 335 337 336 339 340 340 338 338 337 341 342 343 345 347 350 352 352 351 349 350 350 350 347 346 346 346 345 347 349 350 349 349 351 349 348 350 347 346 343 343 343 344 345 348 345 346 347 348 349 348 350 351 352 351 350 351 348 352 355 353 354 357 360 362 361 364 361 362 362 360 362
308 307 305 306 304 303 300 302 308 304 301 295 297 297 307 319 327 325 323 326 327 328 328 327 331 335 336 338 340 341 341 342 341 340 339 338 343 343 344 345 348 351 351 351 349 349 351 349 348 347 346 347 345 345 348 351 352 348 347 347 347 348 348 346 343 343 343 342 344 345 346 348 344 347 349 347 350 347 350 350 349 349 350 349 356 358 351 353 356 359 357 353 354 368 366 364 363
Wind_Speed
6 8 5 2 4 2 2 1 3 2 2 7 2 2 5 5 5 6 6 6 6 7 8 8 11 9 9 12 13 12 8 5 4 3 4 6 10 12 14 12 15 16 15 13 11 9 9 10 11 13 12 13 13 12 12 11 9 9 8 10 10 9 9 9 10 11 11 11 13 13 12 12 12 13 12 12 12 12 13 14 11 10 12 11 13 13 14 11 13 14 15 16 16 17 15 15 18
7 3 5 4 2 1 1 4 2 3 5 4 3 4 6 5 5 7 8 6 6 7 8 10 13 12 11 13 12 13 14 13 13 12 11 13 14 12 15 13 14 17 13 12 10 8 8 8 10 10 12 13 12 11 11 10 9 9 9 10 10 8 9 9 10 10 10 11 13 13 13 13 13 12 12 12 13 12 13 13 11 11 10 10 11 13 14 13 14 14 15 15 15 15 15 15 14
2 6 3 3 2 2 3 2 2 3 3 2 4 6 5 6 7 7 8 9 9 10 9 14 12 7 10 9 10 10 10 13 14 15 12 15 14 10 12 13 14 15 13 10 9 8 7 8 11 12 12 12 12 12 11 10 8 8 9 10 10 9 9 10 10 9 10 12 13 14 13 12 12 12 12 11 12 12 13 13 12 10 9 8 9 12 14 14 14 14 14 15 14 14 14 14 14
4 2 2 2 1 5 2 2 3 5 6 2 5 6 6 7 7 6 5 8 9 8 7 7 8 7 9 10 12 12 11 10 12 14 11 13 11 14 10 13 11 8 10 9 8 7 7 10 12 12 11 11 11 12 11 9 8 8 7 9 10 8 8 10 10 9 10 12 12 13 13 13 12 13 12 12 11 11 12 13 12 11 9 7 8 8 12 13 13 13 14 13 13 13 13 13 14
5 3 3 2 1 2 2 2 4 5 6 3 5 5 7 7 7 7 7 7 7 7 7 9 10 14 13 10 2 5 8 13 13 11 11 14 18 15 13 12 12 10 10 11 10 8 9 13 12 12 12 12 12 11 9 8 8 7 7 8 9 9 9 10 9 9 10 11 12 12 13 12 11 11 12 12 12 11 11 12 11 10 8 9 10 7 8 12 12 13 12 13 13 13 13 13 14
5 3 2 2 1 1 2 4 3 7 5 5 5 6 7 5 7 7 9 8 5 7 9 8 9 11 9 10 6 8 9 7 11 11 14 16 22 19 16 13 12 12 12 11 10 9 11 14 13 13 12 12 12 11 10 8 8 7 7 8 10 9 10 10 10 9 10 11 12 12 11 12 11 11 11 11 12 11 11 11 11 10 9 11 9 5 9 11 11 12 13 14 14 14 13 13 13
2 2 1 2 3 2 1 3 5 5 4 5 4 7 6 5 4 7 9 9 8 7 7 9 11 12 9 8 11 8 11 13 10 12 14 23 22 20 18 15 13 12 12 11 10 10 13 15 15 13 13 12 12 11 10 10 8 8 8 8 10 9 10 9 9 9 10 11 11 11 11 12 11 10 10 12 12 12 11 11 10 9 10 10 10 6 10 11 9 12 13 13 14 13 13 12 13
6 5 2 3 3 1 2 6 8 3 5 6 6 8 6 3 2 4 2 3 5 7 7 8 9 11 12 9 10 8 10 11 15 17 20 19 23 22 19 16 14 13 13 12 11 10 15 15 14 14 12 12 12 10 10 10 9 9 9 9 10 10 8 8 9 9 10 11 10 10 11 11 11 11 11 12 12 12 11 11 10 10 10 9 9 7 6 11 11 12 12 12 12 13 12 12 11
1 3 3 4 3 0 1 1 7 3 5 5 8 6 4 4 8 7 8 7 7 7 9 8 9 9 10 13 11 11 11 17 18 18 20 22 23 20 14 17 16 13 14 13 12 12 12 15 15 14 12 13 13 11 10 10 10 9 10 9 10 10 10 9 8 9 9 10 10 10 11 11 11 11 11 12 11 11 11 11 11 10 10 9 8 7 3 6 11 12 12 11 12 12 12 11 11
1 3 3 3 3 4 5 5 4 8 10 7 6 6 4 3 3 5 5 8 8 9 9 12 12 12 12 14 11 10 12 17 18 18 19 20 20 17 16 17 17 17 14 13 12 11 10 15 16 14 13 14 14 11 9 10 11 10 10 9 10 10 9 9 9 10 10 9 10 9 10 11 11 12 12 11 12 11 11 11 11 11 10 10 7 7 8 4 11 11 11 11 11 11 11 11 10
3 2 2 2 5 6 5 6 6 7 9 15 4 6 6 4 2 5 5 5 8 8 10 14 12 12 11 12 10 10 15 16 17 17 16 21 19 17 15 15 15 15 15 15 13 12 12 11 15 14 13 15 16 13 8 10 11 11 11 10 11 10 10 9 10 9 10 11 9 10 12 12 11 11 12 12 12 13 12 12 12 11 10 9 7 6 5 10 11 12 11 11 10 10 9 10 9
1 0 1 3 4 2 4 4 6 3 8 6 5 11 11 13 11 8 6 5 6 9 7 3 9 11 12 11 9 11 15 15 16 16 15 16 16 17 16 13 14 14 15 15 14 12 12 11 10 13 14 15 16 14 11 10 11 10 11 10 11 10 10 10 11 10 9 8 12 12 11 12 11 11 11 12 12 13 13 13 13 12 10 10 8 7 10 11 11 12 11 10 10 9 9 8 7
3 3 1 2 3 0 2 3 4 6 5 3 6 8 8 5 8 8 5 8 4 7 10 9 11 9 11 9 9 12 14 14 16 18 16 15 15 13 14 14 15 15 14 14 14 13 13 11 10 9 11 15 16 15 13 11 10 10 10 11 11 9 9 10 9 10 10 10 12 13 12 12 11 11 11 11 12 12 12 13 14 13 11 10 9 10 11 11 11 11 11 11 10 9 9 7 6
4 4 4 1 3 2 1 2 2 6 3 4 2 7 6 5 6 13 14 5 5 8 6 7 9 11 13 11 10 10 11 14 16 16 15 16 15 14 15 13 14 14 15 13 12 13 12 11 10 10 10 10 10 10 11 10 9 9 9 10 11 9 10 9 9 9 9 9 12 13 13 12 12 11 12 13 12 12 12 13 13 12 11 10 16 16 12 11 10 11 10 10 10 9 8 7 6
2 6 3 2 1 2 2 2 3 3 5 5 4 6 7 2 1 6 8 12 4 6 10 9 8 6 8 10 10 10 12 15 14 14 16 17 18 16 16 13 13 13 12 13 13 13 12 11 11 10 10 10 11 6 4 6 10 8 8 8 9 10 10 10 10 10 9 8 10 12 14 13 12 12 12 13 12 11 10 12 12 13 13 15 13 12 12 10 10 10 9 8 8 8 8 7 6
6 6 2 2 3 6 2 1 3 3 3 6 2 3 4 7 4 4 5 8 5 6 4 7 4 4 12 9 12 15 16 15 14 14 14 19 18 16 15 13 12 13 11 11 11 10 11 11 10 9 9 9 9 6 5 4 8 10 8 10 9 10 10 10 10 12 9 8 10 12 13 11 11 9 12 10 13 11 11 9 13 12 14 12 12 13 12 10 9 9 8 8 7 8 7 5 5
5 8 1 2 4 7 5 6 6 4 1 2 1 2 5 5 6 3 7 7 11 5 4 4 5 5 10 11 15 17 16 15 14 15 14 13 15 12 11 10 9 9 9 11 9 9 10 11 11 9 10 12 11 9 5 5 6 9 9 10 10 9 10 11 11 17 10 10 9 12 12 6 5 5 7 6 10 7 9 12 14 13 12 12 13 13 10 9 9 8 7 7 7 6 6 5 4
5 4 4 2 4 3 3 2 3 3 3 2 0 3 3 5 12 6 10 8 17 6 8 7 10 12 12 15 16 17 16 16 15 15 13 12 10 12 12 10 10 9 9 9 10 10 9 9 11 11 9 12 11 7 4 3 5 8 6 5 7 8 9 10 9 10 9 6 11 8 9 4 5 4 4 5 4 6 10 14 13 13 13 12 12 9 8 8 8 7 6 7 6 6 6 4 4
5 2 3 2 3 3 3 3 5 5 2 3 3 5 5 8 7 5 3 8 8 7 8 7 12 14 15 15 16 16 16 15 15 14 14 14 11 13 11 11 10 11 9 8 8 10 8 9 10 11 11 11 11 9 5 6 7 5 5 5 5 5 7 7 7 7 6 7 5 3 5 7 7 7 9 9 8 12 10 12 12 12 11 11 9 8 8 8 8 6 7 7 7 7 4 4 3
5 4 3 4 9 7 2 3 4 1 3 4 4 6 6 5 3 5 2 2 7 5 3 5 10 12 13 14 15 16 15 15 15 14 14 12 11 11 13 9 11 12 12 9 10 9 9 8 10 9 11 12 9 8 7 6 6 5 5 5 6 5 6 5 6 6 6 6 6 4 3 6 8 6 11 16 12 7 7 10 11 10 10 9 9 7 7 7 7 8 7 8 6 5 4 5 5
6 6 2 4 8 8 3 4 4 5 4 5 5 7 7 3 1 1 4 1 5 2 4 3 4 12 12 13 15 14 14 15 15 14 14 12 12 9 10 10 9 9 9 10 8 9 10 10 10 10 10 12 11 7 9 7 6 4 5 5 5 5 5 5 4 5 5 6 4 4 4 7 5 5 4 5 4 5 4 4 5 5 4 4 9 4 5 5 5 5 5 6 4 5 7 5 4
4 6 6 5 5 9 7 3 5 5 6 6 6 7 2 1 3 9 8 6 2 2 4 2 5 2 12 13 14 13 14 14 14 14 13 12 11 11 9 11 11 9 9 9 9 10 10 10 10 11 10 11 9 8 9 9 8 6 6 5 5 4 5 6 6 4 4 6 5 5 6 5 5 5 5 4 4 4 5 4 5 4 5 5 6 4 5 5 5 5 5 5 5 5 6 7 7
7 3 8 4 4 8 7 4 5 8 3 1 5 3 10 6 5 6 8 2 3 2 5 8 6 6 9 11 12 13 14 14 13 13 13 11 11 9 11 11 9 9 8 8 9 9 10 11 10 10 10 11 11 9 7 6 5 4 4 5 5 5 5 6 6 5 5 5 7 5 5 5 4 4 4 3 5 4 4 4 4 4 5 5 6 5 5 6 6 5 5 5 5 5 3 1 1
8 2 8 7 8 6 10 5 6 11 4 4 6 6 7 5 3 6 6 3 2 5 4 7 8 6 8 12 11 13 13 13 13 12 12 11 12 8 9 12 9 11 9 8 8 10 9 11 10 10 8 11 9 10 8 6 5 4 3 5 5 6 5 5 4 6 4 4 3 4 5 5 5 4 5 5 5 5 5 5 5 5 5 5 6 5 5 5 6 5 6 6 7 7 5 3 2
8 7 17 13 8 8 9 6 7 10 2 8 8 6 6 3 4 5 5 3 4 2 6 8 9 7 9 9 11 13 12 12 13 13 10 10 10 11 5 9 9 10 11 8 9 9 11 10 11 10 10 9 13 10 7 6 6 6 5 5 4 5 3 4 4 3 4 5 6 5 4 5 5 4 4 5 5 5 4 5 5 5 5 5 5 5 5 5 6 4 1 1 2 3 4 2 2
5 7 15 9 9 8 8 8 9 3 4 7 8 5 7 13 15 7 5 6 4 1 5 1 6 8 12 11 12 10 11 12 11 10 10 9 9 11 8 8 9 8 10 11 9 9 11 12 10 11 11 9 11 9 9 8 5 5 5 4 5 5 3 4 4 4 3 4 4 3 5 4 5 5 5 4 5 4 5 5 5 5 6 5 6 4 4 4 4 3 2 2 2 4 3 4 3
5 14 11 7 6 5 5 4 0 4 6 6 3 8 4 9 6 2 4 4 3 0 4 7 3 4 10 8 7 11 11 13 13 9 8 9 9 9 9 7 8 8 10 10 11 9 8 9 9 9 10 9 10 9 9 9 9 7 5 6 5 5 4 3 4 3 3 3 4 5 6 5 5 5 4 4 4 4 5 6 6 5 4 3 3 4 3 3 2 1 4 3 3 4 2 3 3
6 9 4 7 3 6 6 3 4 3 3 3 2 4 6 4 4 3 8 7 6 5 6 5 4 5 11 3 12 9 8 9 8 13 14 10 9 8 11 8 7 7 7 10 10 9 10 9 9 9 9 8 9 12 7 9 8 9 8 6 6 8 8 6 4 3 4 2 3 3 3 2 3 3 3 4 5 5 5 5 3 4 3 2 0 2 3 3 2 3 3 3 1 1 1 0 5
9 7 7 6 5 2 6 5 4 2 2 3 2 8 8 5 3 3 8 9 9 9 8 6 6 15 14 11 14 9 7 4 7 7 11 9 10 8 12 11 10 8 6 9 9 12 11 10 9 9 8 8 9 13 10 9 9 9 8 7 5 7 6 4 2 2 4 4 2 1 1 1 1 3 5 7 4 4 2 2 3 3 4 0 2 4 3 2 3 3 2 4 3 3 3 2 4
8 11 5 6 6 6 9 5 3 4 2 4 0 4 3 6 5 6 5 5 3 5 13 14 12 12 11 9 6 8 11 11 11 6 5 7 7 8 9 10 9 9 5 9 9 9 10 7 7 7 9 9 8 10 9 8 9 8 7 8 6 6 5 4 3 3 3 3 2 1 0 1 1 2 3 3 5 8 8 4 2 3 3 4 2 3 2 2 1 0 0 2 2 2 2 2 3
8 7 2 6 4 0 8 4 4 6 3 2 3 4 4 6 6 7 7 6 7 6 8 12 15 14 7 8 10 10 11 10 6 9 9 10 7 7 10 10 10 10 7 9 9 10 10 8 6 6 8 9 10 9 9 7 9 8 9 7 7 6 5 5 4 3 3 4 2 1 0 2 1 2 4 6 7 7 8 9 5 3 1 3 1 2 2 1 1 2 2 3 3 3 3 1 2
8 7 6 7 6 2 3 4 5 5 4 7 5 6 4 3 6 6 8 7 7 7 6 12 10 9 12 10 7 8 11 10 7 8 10 9 9 8 9 9 11 8 9 10 9 10 10 9 10 9 9 9 9 8 7 7 8 7 8 7 6 6 5 5 4 3 3 4 3 2 2 3 1 4 6 6 5 6 4 1 7 8 7 2 1 3 3 3 4 3 4 4 4 5 4 4 4
9 9 3 4 1 1 4 6 4 3 3 6 6 5 7 5 5 6 7 7 7 6 4 14 9 10 9 10 9 10 9 9 8 9 11 9 7 8 8 9 8 7 8 9 10 10 10 10 8 11 10 10 9 10 10 8 7 8 8 8 7 6 5 5 4 4 4 3 3 3 3 3 1 5 7 7 5 3 3 3 1 3 11 3 3 2 3 3 3 4 4 5 0 2 5 4 4
8 10 4 2 7 6 5 6 6 5 4 3 9 7 7 7 4 7 7 6 7 7 6 5 8 10 11 11 12 9 12 9 8 9 11 9 7 9 7 8 10 7 7 9 10 9 10 10 7 8 9 9 7 8 8 7 7 8 8 7 7 6 5 4 5 5 4 3 3 2 2 3 3 5 6 5 4 4 1 1 5 7 3 0 1 1 2 2 2 3 4 5 2 2 2 1 2
9 3 2 4 3 3 3 5 7 7 8 9 7 10 9 3 6 5 4 6 6 5 7 7 9 11 10 10 8 9 8 11 10 8 11 8 9 9 7 7 8 7 7 9 9 9 7 8 6 5 8 10 8 7 9 8 7 7 7 8 7 4 4 4 4 4 3 3 3 3 3 2 5 4 5 6 6 5 1 2 6 4 1 1 2 2 2 2 1 2 6 1 2 2 3 2 4
11 10 6 1 5 3 5 3 9 9 6 8 11 8 5 5 8 6 3 4 6 8 9 7 8 7 9 5 1 4 11 8 9 8 8 8 8 10 7 7 8 6 7 9 9 8 10 9 6 6 9 9 9 8 7 8 7 7 7 7 7 5 3 3 3 4 4 2 3 2 1 3 3 4 6 7 4 2 5 4 9 2 1 2 2 2 2 3 2 5 6 2 3 4 3 5 3
12 9 9 5 6 7 10 8 8 9 4 8 11 7 2 15 12 9 4 4 4 7 7 6 8 7 5 10 7 6 10 9 9 10 8 6 3 8 9 8 8 8 10 10 9 10 10 10 10 8 9 9 8 9 8 8 8 8 8 8 7 6 5 5 6 6 6 4 4 3 1 1 2 4 7 6 5 5 5 5 4 1 1 1 1 1 2 2 2 2 6 1 2 3 4 2 2
11 10 10 6 6 8 9 8 9 6 5 6 9 11 5 9 12 7 3 2 3 5 7 9 8 6 10 9 8 6 6 8 10 8 8 8 5 4 8 7 8 10 8 11 10 10 9 13 13 11 9 9 8 8 8 8 8 7 8 8 8 7 6 6 6 6 6 6 10 5 3 2 4 4 7 6 6 5 4 3 2 2 3 2 2 2 4 2 3 5 2 1 3 4 1 2 7
10 8 7 6 8 2 8 9 9 6 3 5 8 7 5 9 9 6 4 3 4 5 5 7 7 3 15 10 7 7 7 8 10 10 8 9 7 7 8 7 6 10 10 10 11 11 10 10 10 10 9 10 9 9 8 8 8 7 7 7 8 8 7 5 6 6 10 12 11 6 4 5 5 5 8 8 6 4 4 3 2 3 4 4 4 3 3 2 2 5 5 3 6 6 2 1 3
9 9 8 8 7 9 6 11 7 9 6 4 4 5 3 11 8 6 6 5 3 2 3 5 7 4 9 16 12 10 9 9 10 11 11 8 6 2 2 5 9 8 9 11 11 12 9 8 8 8 8 9 8 8 7 7 7 6 5 5 5 3 4 1 3 3 5 7 16 12 6 8 8 7 9 4 3 2 4 4 4 5 4 2 2 1 2 3 1 1 1 1 1 4 2 2 2
9 10 10 9 9 8 8 7 10 9 10 6 4 4 5 5 4 5 2 5 3 3 1 4 2 4 4 10 9 7 10 11 11 10 9 7 4 1 2 1 1 6 8 10 11 11 8 11 10 8 8 7 8 8 8 7 7 6 5 6 4 3 2 3 5 3 4 3 7 13 13 12 11 8 12 8 4 4 5 5 5 4 3 3 2 2 1 3 3 2 2 2 1 2 2 1 0
9 12 11 8 8 11 13 11 13 5 6 9 3 5 2 4 3 6 2 3 5 4 3 2 3 2 4 6 8 3 2 9 9 10 8 6 5 2 3 3 2 4 10 8 11 11 11 10 11 9 8 7 9 10 9 8 6 7 7 6 5 4 6 5 5 7 7 6 7 9 13 13 12 10 12 11 11 10 6 9 4 4 3 2 3 2 3 2 2 1 2 2 2 2 1 2 4
9 8 9 10 7 9 8 8 7 6 6 6 4 5 5 1 6 4 3 3 4 6 5 5 3 4 5 7 4 6 9 5 9 8 5 7 7 6 4 4 3 6 12 10 10 10 11 10 12 11 9 8 9 8 11 8 8 8 9 10 8 8 7 5 4 6 8 8 7 8 9 10 9 8 11 14 7 9 12 8 5 5 4 4 3 4 4 4 3 2 1 1 2 0 0 3 3
4 5 8 9 8 8 8 9 7 7 6 8 8 5 8 4 2 3 2 4 4 5 5 5 3 7 2 7 2 8 6 9 7 7 6 5 3 3 3 1 2 11 10 9 10 10 12 12 10 10 8 8 9 10 11 10 9 9 9 10 9 9 9 7 7 6 7 7 8 9 9 8 8 7 8 11 15 15 10 7 5 4 5 5 4 3 3 2 2 3 2 2 2 0 1 3 2
5 3 5 9 9 9 10 8 7 2 4 2 1 9 8 1 2 2 2 3 2 6 6 5 5 8 4 7 3 5 7 8 7 6 6 6 4 4 3 4 6 10 13 9 9 9 10 12 11 8 6 9 11 12 11 11 10 9 10 8 7 7 8 8 8 7 7 8 9 8 7 8 7 7 8 8 7 7 8 7 6 4 4 4 3 3 2 3 4 4 3 2 2 1 1 2 1
9 7 7 8 8 9 9 8 6 4 5 6 3 4 8 1 2 1 4 1 2 5 7 6 6 8 7 6 5 3 6 8 5 4 4 3 3 1 3 2 1 12 11 9 9 11 11 11 13 14 10 9 11 12 10 10 10 9 8 7 9 8 6 7 7 8 8 6 7 6 7 7 8 7 9 7 7 6 6 6 6 6 6 6 4 4 3 3 3 3 3 2 0 3 1 1 2
6 9 10 5 8 8 8 5 4 4 6 7 11 8 6 5 4 2 2 1 2 0 7 7 8 5 4 3 3 5 5 6 4 4 4 3 4 4 2 1 5 10 6 5 7 11 12 12 12 13 12 10 12 12 11 11 10 10 8 9 10 9 9 8 7 7 6 6 6 7 5 5 6 8 7 7 7 8 7 6 8 8 6 4 5 5 5 7 6 5 5 3 2 2 1 1 1
8 9 6 5 5 4 7 5 5 6 5 4 12 7 3 8 4 1 8 13 14 13 6 10 10 10 8 5 4 5 7 6 6 7 7 7 5 3 6 7 10 14 10 11 3 9 11 11 12 12 11 10 12 12 12 13 12 11 9 10 9 8 9 9 8 7 7 7 7 7 6 6 5 8 5 6 7 9 7 6 7 7 5 5 5 5 6 4 4 3 4 3 3 3 2 2 1
8 5 6 5 5 5 5 4 2 5 5 4 4 5 7 1 5 10 11 8 7 12 9 6 11 11 9 8 9 5 5 6 7 7 7 7 6 6 7 9 13 12 2 7 4 6 11 10 12 13 11 12 11 12 12 11 10 10 10 9 9 8 8 7 7 7 6 7 7 6 7 6 5 7 7 8 9 10 6 6 6 8 7 6 4 4 2 3 3 4 4 5 4 4 2 3 2
7 9 2 3 5 4 6 5 5 5 6 5 7 3 5 7 9 13 9 8 7 6 5 4 9 10 11 11 9 8 7 8 7 8 10 10 10 10 11 12 10 8 3 3 7 10 4 9 11 11 11 11 10 11 11 11 10 10 9 10 9 7 8 7 8 9 9 6 6 7 8 7 6 7 9 7 8 10 8 7 5 5 6 5 5 5 3 4 4 4 3 2 6 3 2 2 2
5 3 3 6 7 7 7 3 5 5 5 8 4 6 2 4 6 9 8 10 9 7 6 3 5 7 9 10 10 9 8 8 8 7 8 9 10 9 9 9 8 5 7 7 6 4 10 8 9 10 11 12 11 11 10 11 10 10 9 9 8 8 8 8 7 7 7 7 8 8 6 8 8 6 6 6 8 7 9 6 7 4 6 6 6 5 5 4 5 4 3 2 1 2 2 3 4
7 7 9 6 4 8 6 1 2 6 4 4 7 1 10 10 12 10 7 5 7 8 6 5 4 5 4 5 8 9 8 6 4 7 6 6 9 9 8 7 6 6 6 6 7 4 3 6 9 9 11 12 12 11 10 11 9 10 9 9 9 8 6 8 6 7 6 7 7 7 6 6 6 6 5 4 5 4 6 7 7 8 5 7 7 7 6 5 6 5 4 3 3 4 4 5 4
4 7 1 5 5 7 9 6 4 9 4 5 6 6 10 15 11 9 8 4 9 7 2 5 5 5 6 5 6 7 8 10 9 7 7 8 7 8 9 7 7 6 6 7 6 5 8 5 10 10 11 11 12 11 12 11 9 10 10 10 10 9 10 10 10 11 11 9 6 6 8 8 7 6 7 7 7 4 6 6 7 8 7 6 5 5 5 5 5 4 6 5 6 6 4 5 5
6 7 8 10 8 8 5 7 3 3 6 3 1 6 9 8 5 3 7 5 5 4 4 4 5 6 7 6 6 5 5 8 7 7 8 9 9 9 8 7 8 8 7 9 8 6 9 9 5 10 11 12 13 13 13 12 11 11 11 11 10 10 11 11 10 11 11 9 7 5 7 7 8 9 8 9 7 8 6 8 7 6 8 7 7 7 6 5 6 5 5 5 4 3 2 3 4
10 10 11 6 3 5 3 4 6 4 4 5 3 6 10 9 9 4 5 4 7 6 2 3 4 4 3 4 7 7 7 7 6 5 5 7 7 7 7 7 8 8 7 8 9 5 4 6 5 7 12 13 13 12 12 11 12 10 10 11 12 11 10 11 9 9 8 10 10 9 9 8 9 8 7 6 8 9 6 6 5 7 7 7 6 7 7 5 6 5 5 5 5 4 5 4 4
7 7 10 8 10 2 5 2 5 4 5 5 4 5 5 8 7 8 6 4 5 8 2 3 3 3 3 2 2 6 6 6 6 7 7 6 7 7 7 6 8 9 9 7 8 7 8 7 10 6 12 12 12 13 12 12 13 11 11 11 10 8 7 8 8 8 10 9 10 11 10 11 9 7 8 6 9 8 8 9 8 9 9 10 9 8 10 7 7 6 6 7 6 5 5 5 5
2 3 6 5 7 6 4 6 7 5 7 6 6 4 7 8 6 8 7 4 4 6 6 1 1 3 4 3 2 3 1 4 4 5 7 8 6 7 6 6 7 8 8 8 7 7 8 5 6 9 11 14 14 13 12 10 11 10 11 12 13 11 12 10 11 9 10 9 8 9 9 9 8 7 7 7 6 7 8 8 10 8 9 8 7 7 7 7 7 6 6 4 6 7 6 5 4
9 7 5 5 6 5 6 5 2 7 5 4 5 3 8 7 4 5 4 4 4 6 3 4 2 3 4 3 3 2 3 3 6 6 5 8 9 8 8 8 7 8 8 9 8 7 7 8 7 6 6 10 13 14 11 10 10 10 11 12 13 12 11 9 11 10 10 10 10 8 8 7 10 7 7 10 8 9 9 9 9 9 8 9 7 6 8 6 7 6 7 7 5 3 4 4 4
Wind_Direction
189 202 202 251 91 138 133 25 293 121 198 240 204 83 80 91 93 107 107 139 88 102 99 86 92 102 74 73 82 83 70 74 21 208 122 123 128 116 122 136 129 120 123 128 124 124 119 118 116 111 115 114 113 107 107 109 110 111 106 96 92 98 104 97 95 101 101 104 98 93 96 90 82 81 74 76 77 79 80 69 77 93 102 114 119 113 116 122 112 109 109 114 114 115 115 116 122
203 108 55 21 335 243 235 146 256 240 219 236 91 101 101 94 94 84 98 93 88 96 93 89 77 86 87 80 87 87 67 58 76 88 100 120 124 123 126 122 118 123 126 126 123 120 118 125 123 121 122 117 114 110 109 113 119 116 106 101 99 98 101 103 99 99 101 100 96 98 99 95 88 86 85 85 85 84 78 91 92 85 95 103 107 116 117 116 110 111 114 115 112 114 116 116 118
101 135 114 144 61 296 21 250 245 245 273 141 86 88 97 81 82 68 71 94 105 104 97 100 81 71 98 95 83 77 88 89 96 103 109 129 128 117 117 122 125 122 125 123 124 126 128 128 125 122 123 123 119 122 120 121 118 111 104 103 105 103 104 106 103 104 103 99 100 99 100 100 94 91 93 89 91 91 88 93 95 94 98 105 108 116 117 113 111 113 117 112 113 113 115 116 119
251 2 143 205 216 148 227 222 257 279 278 150 117 91 92 97 85 87 92 100 108 110 110 91 75 48 83 84 89 94 86 92 103 117 127 138 118 110 110 120 99 106 120 119 128 127 125 132 130 127 124 125 127 122 123 127 120 106 100 99 108 105 106 103 101 104 105 100 97 100 102 103 103 102 94 97 97 93 91 92 101 115 108 86 104 102 107 112 113 112 107 110 115 116 117 118 120
237 164 169 191 269 175 295 270 296 319 262 95 102 99 97 105 121 120 99 100 99 102 89 98 90 89 81 89 74 89 99 110 119 123 117 117 121 122 128 115 123 129 123 126 126 122 123 127 134 137 127 124 122 123 129 127 111 110 109 102 107 110 109 107 105 104 102 100 101 101 104 106 108 106 103 103 104 102 101 102 105 97 98 90 80 79 85 108 111 110 115 117 114 117 119 120 121
228 222 101 270 319 36 357 276 322 265 8 119 122 94 106 115 119 118 101 84 93 77 94 100 104 93 87 75 80 102 130 112 118 114 126 121 119 128 129 129 133 133 129 130 128 126 130 133 132 125 117 119 125 128 129 119 116 118 113 110 107 110 107 109 109 106 108 106 102 102 105 105 101 102 106 106 108 107 106 105 106 106 111 109 112 130 122 108 112 113 118 115 118 121 123 123 125
253 187 174 199 248 159 252 307 262 302 25 76 101 104 85 60 54 107 128 126 87 90 80 92 110 120 98 105 90 84 100 119 120 122 122 121 119 128 131 133 131 129 129 127 129 124 130 134 132 128 126 126 128 131 128 122 126 125 123 115 115 113 107 109 112 111 109 106 103 109 114 110 112 114 114 109 110 110 110 110 110 110 109 112 120 117 102 109 108 123 116 117 119 119 119 121 119
347 312 280 291 305 126 7 339 293 250 303 7 73 94 76 43 310 73 26 72 139 105 106 118 82 81 95 88 89 91 104 103 119 124 116 118 117 121 124 127 129 134 133 132 127 123 133 134 130 126 127 128 129 133 126 125 125 125 120 116 115 114 113 111 112 110 108 105 110 114 114 112 116 115 113 111 110 112 116 117 117 117 114 108 112 106 101 120 142 117 115 117 118 118 119 118 117
14 273 199 279 316 227 301 267 286 317 248 89 61 60 76 37 9 329 75 107 101 107 107 98 103 99 89 92 87 97 99 113 118 121 122 127 120 125 130 130 130 134 135 130 124 130 133 133 129 126 127 123 130 131 134 131 128 132 126 120 116 118 120 113 106 107 110 110 115 119 114 116 121 119 118 116 116 119 123 124 122 121 121 116 120 118 104 114 122 117 116 119 118 117 116 116 116
48 346 350 315 284 333 341 346 355 355 337 7 76 66 65 55 50 307 122 88 77 80 78 89 93 95 108 102 107 106 108 118 125 125 130 115 117 123 126 125 129 132 134 130 129 127 130 133 129 128 127 126 125 132 136 131 131 135 129 115 119 116 114 115 113 112 108 118 121 122 115 122 124 124 122 121 123 124 125 123 122 133 126 118 117 123 111 213 121 119 120 119 119 117 117 117 118
60 317 252 290 347 345 9 357 8 328 348 305 36 49 39 354 320 75 74 75 77 79 102 109 104 105 99 89 84 107 121 127 129 124 121 117 122 122 120 124 127 132 131 133 132 129 134 135 130 130 129 127 128 131 137 132 137 139 129 125 118 117 112 113 109 105 116 131 132 127 125 128 126 126 127 127 131 133 134 131 131 129 124 120 128 130 159 175 125 124 122 121 118 115 115 114 114
224 182 257 11 33 22 345 4 309 282 286 307 17 356 13 350 358 325 5 111 135 133 123 207 109 112 104 109 116 126 131 129 126 128 128 117 118 123 126 126 131 130 130 129 129 134 133 133 132 134 131 129 126 130 139 139 140 135 135 124 118 113 114 117 120 124 120 140 135 129 130 129 131 132 133 134 135 137 139 137 132 126 129 147 143 141 196 141 131 125 124 124 120 118 115 115 114
225 189 89 10 21 39 33 23 311 291 291 320 331 342 356 13 317 12 10 42 29 99 107 100 124 120 114 111 118 132 135 130 129 132 134 121 120 126 128 133 134 131 128 131 132 130 135 139 137 134 130 126 125 133 144 145 139 141 133 124 113 110 114 120 118 133 139 140 138 135 133 132 132 133 134 133 139 141 139 134 131 138 154 150 145 188 173 134 130 128 127 128 128 125 123 124 125
223 183 123 121 229 89 113 233 328 305 280 315 342 327 7 359 336 326 346 349 31 87 74 88 81 93 99 120 135 139 128 136 134 137 136 129 129 128 126 123 125 129 131 130 133 135 137 138 140 135 136 127 114 130 135 139 138 140 131 128 121 125 126 124 123 129 135 139 139 135 131 131 133 134 138 142 144 143 140 138 141 156 157 159 178 177 137 140 131 131 131 130 131 130 130 129 141
231 142 168 340 82 87 237 109 241 278 271 322 5 327 349 208 45 324 31 294 66 49 68 67 105 152 138 143 144 141 141 138 144 140 130 132 134 129 129 129 128 126 129 134 134 136 141 141 139 142 143 129 127 122 129 150 143 137 135 127 124 134 133 128 128 127 124 129 137 137 134 131 133 137 142 142 142 147 154 148 155 161 161 174 152 140 142 134 133 134 138 135 136 135 134 142 143
240 124 95 269 178 161 187 202 197 240 270 287 85 337 357 316 268 16 274 251 346 42 255 114 201 121 141 132 146 139 142 145 147 136 133 129 128 131 131 134 134 133 134 137 136 138 139 143 141 145 137 122 116 124 141 155 149 143 137 131 136 143 137 132 131 113 129 136 147 141 130 127 131 139 145 148 149 163 162 159 161 159 157 146 144 143 141 138 142 141 148 154 146 145 148 154 153
243 124 3 302 333 79 192 163 204 234 138 215 44 57 18 331 329 21 347 14 321 139 111 75 74 140 136 140 132 139 143 143 148 140 143 138 139 138 134 132 132 133 137 136 139 142 145 144 144 140 136 124 122 129 153 146 150 139 136 141 144 143 143 137 125 119 153 149 146 132 104 106 138 147 144 163 158 155 168 163 154 151 145 144 148 138 132 142 144 156 158 163 164 158 167 181 164
259 118 218 145 354 74 115 151 216 134 188 178 111 51 42 344 15 335 314 357 342 67 69 62 81 77 120 121 132 138 145 152 146 150 147 144 157 147 139 142 145 141 140 137 143 147 147 145 146 139 126 127 127 123 153 147 149 138 147 148 144 148 146 140 131 131 143 143 144 135 122 143 133 150 157 158 171 163 181 154 152 151 150 150 148 139 142 151 165 166 176 176 182 181 196 211 203
283 12 292 44 115 108 131 155 164 187 170 85 103 85 37 36 5 333 345 335 332 32 29 71 88 96 107 126 135 144 149 154 154 152 151 161 158 155 148 150 146 140 143 142 147 146 143 145 143 139 132 126 116 138 167 139 153 146 146 148 153 152 147 141 128 125 129 131 140 150 138 153 154 169 156 177 158 184 161 157 152 151 150 151 149 149 153 165 180 192 190 195 196 202 216 255 201
102 285 320 20 107 99 128 151 164 72 106 110 132 87 74 12 6 328 357 242 306 355 65 46 114 122 131 135 144 150 158 155 159 157 157 167 160 157 142 158 144 146 149 156 149 147 148 143 141 134 133 124 137 155 143 144 162 147 163 159 153 152 142 140 133 133 142 149 156 161 170 147 163 174 159 159 153 166 152 154 156 153 156 159 156 154 169 180 188 208 214 214 211 213 234 235 232
120 222 318 25 125 114 117 150 165 147 147 104 67 55 56 274 204 1 211 41 256 210 306 323 99 131 141 150 151 156 162 158 165 160 164 169 161 163 150 152 158 144 156 150 147 145 150 149 139 137 141 135 137 158 139 149 155 170 166 150 160 156 147 129 136 148 146 149 161 163 173 152 165 148 146 146 151 151 154 155 153 161 164 171 172 169 181 183 198 208 220 216 217 217 221 218 251
291 260 106 65 16 100 142 92 136 154 101 121 102 104 184 325 298 238 201 236 155 189 189 167 254 254 154 158 160 162 162 167 165 166 167 167 164 162 146 137 160 154 144 148 157 151 155 148 147 146 148 143 133 144 138 144 155 164 166 156 158 162 162 147 148 153 161 156 148 190 153 140 145 146 161 168 155 170 162 164 176 168 171 176 200 187 191 167 212 205 212 203 224 225 223 208 203
302 77 104 100 41 86 137 133 138 91 187 224 108 173 99 197 227 230 243 237 203 197 157 172 211 225 147 170 161 171 166 170 166 174 158 171 157 170 154 149 154 155 151 159 150 152 152 152 153 151 151 136 147 119 117 131 152 150 160 157 151 171 169 158 152 160 168 163 153 188 141 145 153 160 166 174 165 181 175 177 179 184 177 178 205 205 176 176 219 200 207 213 219 233 229 36 185
270 350 89 62 47 44 75 48 79 142 139 229 195 104 173 168 221 235 259 228 229 228 144 171 207 222 220 162 184 172 170 176 167 172 161 167 155 185 149 155 160 154 143 159 160 152 157 155 153 154 147 140 110 120 136 148 141 140 185 169 151 176 173 165 165 164 165 134 145 184 141 144 158 169 177 185 187 188 185 190 187 187 198 180 197 216 177 183 221 210 208 207 206 219 147 162 219
246 252 55 57 55 45 57 60 60 352 98 202 156 180 78 192 261 231 229 276 192 290 271 180 180 206 212 180 178 177 172 179 175 165 167 162 159 151 175 154 165 137 142 169 162 154 151 145 157 153 141 145 132 129 137 141 146 160 184 169 171 175 183 158 185 175 167 145 171 143 143 142 161 174 190 197 183 195 204 197 178 192 204 196 182 217 185 196 217 207 155 284 174 293 145 152 154
300 11 72 43 59 47 33 30 39 18 273 296 95 355 203 192 202 217 227 223 213 116 344 294 208 202 219 179 187 184 181 180 174 160 162 151 164 150 156 150 141 150 147 169 154 141 142 156 162 153 148 150 114 133 128 146 161 168 155 171 174 159 177 183 202 188 144 142 146 137 131 143 173 186 195 202 193 204 215 200 196 201 208 201 193 167 196 216 225 116 188 232 210 255 174 147 194
41 73 89 84 61 104 77 57 233 192 231 224 294 177 242 222 224 165 218 213 140 246 245 235 261 351 286 177 213 186 193 180 160 172 153 179 156 148 158 162 147 154 169 157 133 146 154 158 165 155 150 149 134 129 149 154 147 155 171 171 153 140 202 186 214 163 124 138 136 143 150 167 194 209 205 203 212 214 218 212 198 208 198 197 186 144 204 225 109 182 200 208 229 271 163 166 205
296 118 152 96 105 115 120 155 253 316 275 267 9 278 210 175 249 124 162 182 178 158 199 165 177 203 252 313 248 168 204 172 178 179 156 182 156 164 136 150 148 157 182 149 138 142 152 163 155 157 145 153 134 124 161 144 137 152 157 150 168 159 194 182 176 113 126 110 137 135 146 169 221 254 255 214 219 222 213 215 189 164 175 133 38 123 105 255 121 208 213 303 222 286 359 101 263
294 162 125 133 189 162 158 199 208 177 286 260 7 283 261 199 194 177 158 180 192 186 172 144 230 225 224 191 215 186 173 182 163 198 152 176 165 159 143 150 154 157 181 137 149 144 135 151 152 154 152 148 146 140 147 148 145 145 149 152 182 163 159 151 144 121 125 117 124 90 88 115 181 230 269 233 226 219 179 83 48 5 5 153 175 158 194 235 150 214 223 242 156 214 181 219 277
275 265 188 179 182 226 157 175 216 218 248 245 303 306 114 173 189 187 190 188 235 204 184 166 204 233 185 218 175 184 145 181 191 159 155 145 170 167 155 151 158 167 170 135 160 154 140 148 157 159 150 158 143 128 141 146 145 146 156 147 161 155 137 148 162 110 115 110 106 76 75 201 193 224 276 45 27 18 10 17 24 53 305 300 120 106 111 216 267 116 252 281 222 302 168 172 261
251 285 125 297 278 132 142 193 173 239 166 220 217 271 289 177 195 186 184 201 212 228 184 199 175 197 192 207 174 200 143 199 131 164 154 126 138 170 152 142 161 161 170 148 155 144 144 144 152 152 158 146 122 134 141 143 145 149 140 142 149 148 137 150 146 136 127 128 122 124 239 261 241 333 48 55 47 50 32 335 357 12 291 255 56 146 188 198 184 225 217 240 203 237 152 237 262
217 244 187 210 237 109 118 173 217 263 155 224 230 258 277 163 192 190 182 206 225 253 171 196 186 191 191 184 190 211 156 145 174 162 134 135 145 156 162 155 169 166 164 148 157 147 146 155 172 153 159 141 126 129 129 139 137 141 139 138 141 143 144 148 147 152 132 126 162 140 234 252 233 44 64 54 54 67 89 16 346 323 296 250 119 22 1 16 328 251 214 243 212 194 192 174 215
222 237 239 254 141 174 211 188 197 250 260 193 232 290 299 239 184 168 186 202 234 250 254 181 186 188 196 186 189 183 142 140 158 153 155 149 156 152 157 171 160 169 163 148 144 156 150 156 170 139 151 137 128 133 134 134 132 136 140 142 149 153 152 153 152 145 119 141 183 162 190 236 62 68 71 67 57 61 57 111 213 226 268 36 38 49 57 35 340 322 312 287 3 295 198 165 83
222 196 256 288 186 195 222 148 198 187 247 243 192 237 256 310 136 170 182 199 229 266 261 154 188 185 190 190 197 161 158 141 165 157 145 151 154 150 160 170 152 186 151 148 154 155 159 154 149 143 133 123 113 128 129 125 130 140 142 144 152 148 151 145 160 151 143 198 160 171 171 204 77 63 71 79 91 39 60 173 228 232 251 116 137 93 143 117 264 316 310 292 282 304 357 122 160
22 22 242 237 7 179 304 156 159 202 211 243 257 239 259 226 155 162 202 194 250 277 293 147 187 194 189 188 198 137 146 158 158 157 152 151 161 154 161 164 154 170 162 153 162 159 134 112 113 113 106 113 127 130 133 136 138 137 124 139 142 126 142 154 143 137 156 209 141 172 167 86 75 77 77 59 54 58 328 243 292 248 9 338 36 19 26 102 16 325 275 249 316 332 263 179 192
321 10 3 28 261 220 182 139 161 189 236 248 234 264 266 138 106 70 190 213 231 258 273 271 204 207 222 101 86 135 150 177 144 140 138 148 156 143 166 165 160 159 169 155 156 142 133 122 117 127 126 135 138 137 143 140 150 144 141 140 145 149 148 164 166 159 169 218 142 200 128 72 105 108 89 110 111 190 216 173 226 258 152 84 50 0 16 38 57 333 290 276 6 309 327 284 129
294 291 240 241 258 261 157 153 173 177 262 261 279 297 12 104 140 177 184 195 251 285 284 274 269 243 138 144 197 180 139 134 138 126 128 144 139 146 164 157 163 168 173 144 161 161 161 136 147 154 134 141 149 150 153 153 154 153 149 155 155 164 170 185 180 171 182 160 153 216 86 147 164 140 128 129 166 194 177 218 249 320 97 172 110 359 3 347 8 273 270 237 250 259 241 18 37
276 290 308 277 221 270 150 157 154 167 212 284 285 272 119 144 136 132 123 58 339 337 322 309 304 283 86 167 178 144 138 128 127 124 122 136 164 151 162 164 180 165 176 155 159 157 166 140 154 157 150 152 159 154 149 161 162 162 156 159 151 157 174 190 178 179 157 167 158 159 161 209 225 171 134 149 181 181 203 199 208 207 193 192 188 203 171 235 344 330 283 21 262 266 317 185 136
286 274 258 244 265 238 122 159 169 141 218 268 281 306 316 93 97 101 80 57 21 3 346 328 320 334 124 152 197 144 154 148 137 139 140 147 162 185 172 160 190 171 173 174 165 162 165 152 151 148 159 155 160 151 152 157 164 161 157 146 149 154 186 189 169 193 161 166 139 162 177 209 210 194 138 166 187 191 203 205 177 212 214 190 174 192 121 68 349 343 336 358 16 277 144 199 62
265 260 241 257 276 268 226 145 165 181 201 268 280 292 4 104 91 90 67 58 27 47 32 357 341 225 164 147 171 158 168 151 146 151 151 148 148 89 357 176 181 180 184 169 166 160 160 158 150 152 162 153 151 156 152 155 156 145 107 110 68 103 170 129 10 132 125 132 148 160 182 209 206 192 141 135 227 190 218 206 201 213 219 162 105 158 145 121 68 356 311 313 311 355 330 47 300
235 236 264 272 240 233 263 155 210 188 213 227 251 257 274 139 150 121 77 135 53 54 340 348 76 56 131 132 140 175 169 164 149 148 138 125 117 100 228 304 110 226 192 175 172 161 166 163 153 157 147 153 146 152 147 144 134 119 97 93 63 79 108 135 157 156 133 145 156 163 170 197 196 194 140 152 181 221 252 238 203 197 196 154 147 140 50 73 203 120 297 310 38 352 22 98 341
257 225 234 266 276 268 247 185 175 203 229 183 226 293 271 112 103 51 66 360 26 36 359 40 56 157 156 133 123 94 259 159 146 137 136 137 139 164 235 267 269 243 227 165 166 171 168 163 152 160 146 143 144 149 145 147 145 133 142 149 151 168 170 172 164 160 172 175 185 186 164 182 187 187 136 145 161 206 211 241 204 184 176 182 173 146 118 190 151 188 153 229 130 80 115 1 53
253 359 202 212 257 272 300 311 290 270 301 124 203 307 300 220 60 74 351 36 21 54 35 55 84 128 119 115 140 139 179 135 97 97 127 161 164 179 217 256 220 258 233 181 161 180 152 155 160 165 152 163 143 145 153 151 149 151 163 168 172 180 166 172 161 170 177 188 187 197 164 181 183 164 140 153 150 211 187 215 181 186 168 172 153 143 178 148 156 136 128 96 65 105 70 65 36
306 34 354 314 344 307 293 272 279 297 63 56 347 324 308 301 48 13 23 353 26 59 46 68 99 128 59 90 101 177 153 133 115 98 99 87 103 163 172 95 342 264 219 199 158 167 157 156 161 150 158 152 152 155 169 161 161 166 174 178 179 173 165 173 182 188 197 187 189 189 172 177 164 165 144 153 179 191 170 173 197 170 164 167 150 139 116 131 152 141 120 101 151 26 79 51 88
1 330 6 274 287 311 305 311 292 317 311 340 266 258 260 10 110 60 344 327 29 74 63 62 118 139 176 86 315 100 95 97 113 130 135 148 175 203 119 180 215 245 246 205 156 168 156 155 148 135 165 158 152 165 168 165 167 174 173 171 166 173 169 174 183 189 194 193 183 172 170 169 157 155 148 177 171 165 174 170 166 176 148 146 138 101 165 180 153 128 141 144 109 108 27 110 82
34 10 278 271 289 257 276 288 300 282 276 276 241 231 281 31 203 185 88 331 336 93 88 92 126 143 146 132 180 144 103 91 89 111 110 102 133 139 187 259 243 274 238 171 156 164 155 159 158 152 177 163 160 168 168 168 169 172 170 167 171 176 190 176 182 187 175 175 169 174 175 158 160 156 160 170 177 173 178 167 168 164 157 158 140 145 185 192 167 147 144 112 178 92 178 185 189
328 284 302 260 229 254 247 246 259 322 270 252 263 224 249 269 133 158 123 45 19 297 123 130 148 150 162 163 194 162 133 106 109 144 140 151 154 170 170 176 290 273 277 297 180 168 157 158 165 162 165 161 165 171 172 170 168 179 177 174 183 186 189 175 180 169 151 156 163 177 169 161 163 154 173 169 172 177 173 176 173 162 166 153 138 161 198 191 164 168 147 153 159 140 193 132 341
343 304 285 279 268 288 278 256 283 270 277 17 332 277 280 294 115 112 76 62 55 31 0 161 172 174 175 204 251 194 150 134 166 175 153 166 135 203 176 155 229 232 221 191 253 179 154 158 165 161 163 163 166 170 175 174 173 181 184 182 186 199 178 178 173 170 161 170 175 172 158 179 182 148 177 171 173 185 162 188 176 148 155 164 170 177 213 164 154 148 136 150 144 172 223 93 341
228 252 242 285 314 308 276 70 317 253 286 61 250 331 294 330 46 96 76 83 114 129 193 213 178 174 174 181 196 219 148 152 173 164 152 165 171 195 190 194 209 222 252 120 212 223 152 159 161 162 165 165 169 171 174 178 174 181 181 184 193 190 177 172 165 172 171 175 176 169 163 182 181 160 165 178 178 180 162 193 173 151 155 175 167 168 210 130 117 145 165 177 165 167 193 180 195
277 246 312 270 273 274 287 294 294 265 204 259 225 145 283 93 80 97 132 148 163 155 159 130 158 173 175 179 183 196 174 167 177 174 167 174 189 189 182 201 190 185 104 86 92 321 195 160 161 169 164 166 173 173 177 179 180 181 175 188 188 177 178 170 165 180 182 179 182 171 175 181 178 181 174 171 186 177 165 186 151 157 144 172 159 175 166 156 148 158 177 203 181 180 173 180 216
243 332 235 276 272 260 278 298 296 323 300 233 182 254 149 109 114 146 139 164 159 139 126 133 158 168 172 171 172 176 165 167 182 179 176 180 178 184 173 178 163 120 112 102 90 117 304 167 169 168 168 172 177 176 178 181 181 182 178 187 187 175 183 173 179 183 181 181 182 184 177 179 180 190 171 189 178 179 154 173 154 160 166 161 156 171 176 169 160 150 152 213 223 153 172 202 216
282 261 204 227 352 18 286 34 293 267 297 263 170 2 63 75 108 110 106 142 115 113 119 121 152 168 150 166 149 164 159 146 218 185 170 175 176 186 174 150 134 127 116 96 118 151 59 305 176 179 174 177 179 177 179 183 183 181 180 186 188 179 186 179 175 173 183 187 192 185 185 173 183 175 171 181 186 163 166 157 167 171 178 167 171 174 186 174 171 165 160 172 206 202 192 207 228
29 308 246 337 354 267 296 289 338 329 253 277 80 143 125 117 104 114 117 112 87 69 64 107 118 138 151 150 170 164 164 163 176 199 166 179 193 196 189 157 135 141 140 128 121 138 107 3 291 193 184 183 182 182 181 182 181 182 183 187 187 182 188 188 182 185 188 188 198 189 180 189 182 166 178 185 176 179 165 175 179 179 172 173 176 188 195 169 184 177 175 183 195 216 198 195 207
286 241 28 338 313 331 260 310 317 241 307 290 313 301 158 162 92 105 106 104 119 111 104 101 112 141 161 158 165 150 153 162 176 179 174 183 192 193 187 168 155 153 149 133 147 159 149 155 257 263 192 193 183 187 185 183 184 184 183 188 192 190 190 194 188 189 194 188 182 205 175 194 186 180 187 179 175 187 171 186 174 186 176 181 185 185 200 179 172 195 196 192 211 200 156 209 234
292 318 343 299 48 273 71 307 276 339 285 315 123 293 67 84 106 126 113 115 101 102 89 81 96 110 107 157 158 154 168 157 168 174 189 196 195 199 184 179 160 148 157 142 146 158 171 139 128 280 237 199 191 190 186 187 186 188 187 190 191 195 194 200 196 189 203 183 191 193 196 185 200 176 185 171 178 178 184 185 180 190 174 182 185 183 194 169 179 194 203 186 204 187 177 206 232
245 304 245 259 227 249 306 25 324 255 249 278 106 256 58 78 133 147 129 106 114 110 74 34 62 46 94 101 137 169 164 163 174 178 179 179 193 198 183 183 161 158 157 158 149 156 176 177 151 213 258 209 200 199 184 192 190 192 188 188 194 194 202 205 202 193 199 195 197 190 207 179 203 186 181 182 175 179 182 186 196 201 191 189 190 200 188 177 181 191 210 204 204 196 190 202 225
232 250 317 320 320 24 286 273 266 291 320 285 300 290 80 84 124 135 154 134 87 77 98 75 35 83 69 43 112 102 119 147 167 192 186 170 182 179 181 189 183 175 163 158 159 172 169 189 193 180 247 225 199 202 192 196 193 200 183 188 190 190 201 203 206 195 198 204 202 197 203 189 185 204 172 190 183 187 178 188 193 201 208 180 186 200 192 182 185 187 220 207 200 188 196 211 221
304 321 306 345 284 290 288 287 276 284 277 315 303 316 94 84 137 125 113 77 96 85 131 137 164 172 123 148 130 126 117 180 160 214 206 186 171 169 174 191 194 178 169 162 164 166 168 183 213 181 215 250 207 203 194 199 195 201 192 190 191 187 197 199 205 199 202 205 198 211 189 215 181 200 180 184 192 202 188 183 199 196 216 186 186 188 205 191 183 192 211 226 206 140 199 222 224